Content
SEND FEEDBACK

Daily
Averages
Monthly
Summary
United States of America

WILMINGTON, NORTH CAROLINA


Home > North America > United States > North Carolina
Elevation: 72 feet     Latitude: 34 16N     Longitude: 077 54W

WEATHER
 
SELECT A DAY
Number of Records: 208,628;   Date Range: 1/1/95 - 7/20/14
 
SHARE

PRINT THIS DATA

[ ← Previous Day ]
WEATHER ALMANAC - MARCH 23, 2013
[ Next Day → ]
[ °C ]   °F
Weather ElementAverageHighLow
Temperature45.2 °F57 °F (5:53 pm)33.1 °F (6:53 am)
Dewpoint35.2 °F41 °F (10:53 pm)28.9 °F (10:53 am)
Humidity70.1 %93 % (7:53 am)41 % (10:53 am)
Barometer30.00 in30.06 in (11:53 am)29.92 in (5:53 pm)
Wind Speed1.8 mph6.9 mph (10:53 am)
Weather ElementAverage
Visibility9.6 mi
Wind DirectionENE (69.6 °)

Weather ElementTotal
Precipitation0.02 in
Heating Degree Days20 (Base 65)
Averaged from 23 records on March 23, 2013
WEATHER CONDITIONS BREAKOUT
WIND DIRECTION BREAKOUT
WEATHER BY HOUR - MARCH 23, 2013
[ °C ]   °F
Local TimeTemperatureDewpointHumidityBarometerVisibilityWind DirectionWind SpeedGust SpeedPrecipitationEventsConditions
1:53 AM42.1 °F30.9 °F65 %30.05 in10.0 miCalmScattered Clouds
2:53 AM37.0 °F32.0 °F82 %30.05 in10.0 miSSW (200°)4.6 mphClear
3:53 AM36.0 °F32.0 °F86 %30.02 in10.0 miCalmClear
4:53 AM36.0 °F30.9 °F82 %30.02 in10.0 miCalmClear
5:53 AM36.0 °F32.0 °F86 %30.03 in10.0 miCalmClear
6:53 AM33.1 °F30.0 °F89 %30.04 in10.0 miCalmClear
7:53 AM37.0 °F35.1 °F93 %30.04 in10.0 miCalmClear
8:53 AM45.0 °F35.1 °F68 %30.04 in10.0 miCalmScattered Clouds
9:53 AM51.1 °F30.9 °F46 %30.04 in10.0 miCalmMostly Cloudy
10:53 AM52.0 °F28.9 °F41 %30.04 in10.0 miNW (320°)6.9 mph0.00 inRainLight Rain
11:53 AM48.0 °F35.1 °F61 %30.06 in7.0 miWNW (300°)4.6 mph0.00 inRainLight Rain
12:53 PM46.9 °F37.9 °F71 %30.05 in7.0 miWNW (300°)4.6 mph0.02 inRainLight Rain
1:53 PM48.0 °F36.0 °F63 %30.04 in10.0 miCalm0.00 inOvercast
2:53 PM48.9 °F35.1 °F59 %30.01 in10.0 miCalmOvercast
3:53 PM52.0 °F36.0 °F54 %29.96 in10.0 miSouth (190°)3.5 mph0.00 inMostly Cloudy
4:53 PM55.9 °F37.0 °F49 %29.94 in10.0 miVariable3.5 mphClear
5:53 PM57.0 °F37.9 °F49 %29.92 in10.0 miCalmClear
6:53 PM52.0 °F39.0 °F61 %29.93 in10.0 miESE (120°)6.9 mphPartly Cloudy
7:53 PM48.0 °F39.0 °F71 %29.96 in10.0 miSouth (170°)5.8 mphClear
8:53 PM46.0 °F39.9 °F79 %29.98 in10.0 miCalmClear
9:53 PM44.1 °F39.0 °F82 %29.99 in10.0 miCalmClear
10:53 PM44.1 °F41.0 °F89 %29.96 in9.0 miCalmClear
11:53 PM43.0 °F39.0 °F86 %29.93 in7.0 miCalmClear
Hourly data recorded from KILM, located miles away from Wilmington, North Carolina







STORIES FROM OUR PARTNERS